EW3286 Weather Reports


Display with metric or nautical units.
time (UTC)temp
F
wind
direction
speed
MPH
gust
MPH
rain 1hr
in
rain 24hr
in
rain mn
in
humidity
%
barometer
mb
20260504004534 68 182 0.0 0.0 0.00 0.00 0.00 29 1005.3
20260504003036 68 175 0.0 0.0 0.00 0.00 0.00 26 1005.4
20260504001538 69 175 0.0 0.0 0.00 0.00 0.00 27 1005.4
20260504000032 69 204 0.0 0.0 0.00 0.00 0.00 28 1005.5
20260503234532 70 178 0.0 0.0 0.00 0.00 0.00 27 1005.6
20260503233029 70 199 0.0 0.0 0.00 0.00 0.00 27 1005.7
20260503231528 70 182 0.0 0.0 0.00 0.00 0.00 28 1005.6
20260503230026 70 225 0.0 0.0 0.00 0.00 0.00 27 1005.8
20260503224523 70 196 0.0 0.0 0.00 0.00 0.00 26 1005.9
20260503223023 70 215 0.0 0.0 0.00 0.00 0.00 25 1006.0
20260503221523 70 183 0.0 0.0 0.00 0.00 0.00 25 1006.2
20260503220025 70 183 0.0 0.0 0.00 0.00 0.00 29 1006.2
20260503214522 70 236 0.0 0.0 0.00 0.00 0.00 30 1006.3
20260503213014 70 209 0.0 0.0 0.00 0.00 0.00 28 1006.5
20260503211510 70 206 0.0 0.0 0.00 0.00 0.00 31 1006.7
20260503210007 70 234 0.0 0.0 0.00 0.00 0.00 29 1006.8
20260503204507 70 194 0.0 0.0 0.00 0.00 0.00 32 1007.1
20260503203100 69 235 0.0 0.0 0.00 0.00 0.00 31 1007.1
20260503201554 69 182 0.0 0.0 0.00 0.00 0.00 32 1007.5
20260503200049 68 257 0.0 0.0 0.00 0.00 0.00 35 1007.6
20260503194545 68 265 0.0 0.0 0.00 0.00 0.00 33 1007.9
20260503193045 68 234 0.0 0.0 0.00 0.00 0.00 35 1008.2
20260503191539 67 197 0.0 0.0 0.00 0.00 0.00 34 1008.4
20260503190035 67 225 0.0 0.0 0.00 0.00 0.00 35 1008.6
20260503184534 66 185 0.0 0.0 0.00 0.00 0.00 36 1008.6
20260503183032 66 236 0.0 0.0 0.00 0.00 0.00 36 1008.8
20260503181528 65 253 0.0 0.0 0.00 0.00 0.00 37 1009.0
20260503180127 65 233 0.0 0.0 0.00 0.00 0.00 38 1009.0
20260503174524 65 244 0.0 0.0 0.00 0.00 0.00 38 1009.2
20260503173022 65 227 0.0 0.0 0.00 0.00 0.00 40 1009.2
20260503171524 64 248 0.0 0.0 0.00 0.00 0.00 41 1009.3
20260503081534 53 142 0.0 0.0 0.00 0.00 0.00 48 1007.3
20260503071527 57 120 0.0 0.0 0.00 0.00 0.00 40 1007.3
20260503054513 57 153 0.0 0.0 0.00 0.00 0.00 41 1008.4
20260503053010 56 360 0.0 0.0 0.00 0.00 0.00 43 1008.8
20260503051511 55 135 0.0 0.0 0.00 0.00 0.00 44 1008.9
20260503050008 56 85 0.0 0.0 0.00 0.00 0.00 43 1008.9
20260503044504 56 84 0.0 0.0 0.00 0.00 0.00 42 1008.9
20260503043007 57 91 0.0 0.0 0.00 0.00 0.00 42 1009.0
20260503041601 57 87 0.0 0.0 0.00 0.00 0.00 41 1009.2
20260503040103 57 87 0.0 0.0 0.00 0.00 0.00 41 1009.3
20260503034558 58 87 0.0 0.0 0.00 0.00 0.00 39 1009.6
20260503033055 59 90 0.0 0.0 0.00 0.00 0.00 38 1009.7
20260503031554 59 84 0.0 0.0 0.00 0.00 0.00 39 1009.9
20260503030100 58 85 0.0 0.0 0.00 0.00 0.00 40 1010.3
20260503024550 58 121 0.0 0.0 0.00 0.00 0.00 40 1010.7
20260503023057 58 108 0.0 0.0 0.00 0.00 0.00 40 1010.7
20260503021556 58 76 0.0 0.0 0.00 0.00 0.00 40 1010.6
20260503020056 58 96 0.0 0.0 0.00 0.00 0.00 39 1010.9
20260503014545 59 109 0.0 0.0 0.00 0.00 0.00 38 1011.1
20260503013044 60 102 0.0 0.0 0.00 0.00 0.00 37 1011.4
20260503011542 62 136 0.0 0.0 0.00 0.00 0.00 34 1011.5
20260503010042 62 88 0.0 0.0 0.00 0.00 0.00 33 1011.7